Flag for Norway Weather past 2 weeks in Longyearbyen, Svalbard, Norway

Now
34 °F

Passing clouds.


Feels Like: 29 °F
Forecast: 33 / 41 °F
Wind: 6 mph from Southeast

Location: Svalbard Lufthavn

Current Time: Oct 22, 2014 at 9:40:34 AM

Latest Report: Oct 22, 2014 at 8:50 AM


Visibility: N/A

Pressure: 29.89 "Hg

Humidity: 75%

Dew point: 27 °F

Location of LongyearbyenLocation

Historic Weather in Longyearbyen — Graph

°F

Longyearbyen temperature yesterday

Maximum temperature yesterday: 32 °F (at 10:50 PM)
Minimum temperature yesterday: 19 °F (at 1:50 AM)
Average temperature yesterday: 25 °F

Past Weeks' High & Low Weather Summary

 TemperatureHumidityPressure
High34 °F (Oct 22, 12:50 AM)100% (Oct 9, 10:50 PM)30.63 "Hg (Oct 9, 10:50 PM)
Low10 °F (Oct 15, 11:50 AM)50% (Oct 21, 8:50 AM)29.86 "Hg (Oct 17, 5:50 AM)
Average23 °F76%30.11 "Hg
* Reported Oct 7 7:50 AM — Oct 22 7:50 AM, Longyearbyen, Weather by CustomWeather, © 2014

Note: Actual official high and low records may vary slightly from our data, if they occured in-between our weather recording intervals... More about our weather records

Advertising

Longyearbyen weather history for previous 24 hours

 ConditionsComfort  
Time TempWeatherWind HumidityBarometerVisibility
7:50 AM
Oct 22
34 °FPassing clouds.8 mph70%29.89 "HgN/A
6:50 AM34 °FPassing clouds.8 mph70%29.92 "HgN/A
5:50 AM34 °FPassing clouds.9 mph70%29.92 "HgN/A
4:50 AM34 °FPassing clouds.9 mph70%29.92 "HgN/A
3:50 AM32 °FPassing clouds.10 mph69%29.95 "HgN/A
2:50 AM34 °FPassing clouds.10 mph65%29.95 "HgN/A
1:50 AM34 °FPassing clouds.10 mph65%29.95 "HgN/A
12:50 AM34 °FPassing clouds.12 mph65%29.98 "HgN/A
11:50 PM
Oct 21
32 °FPartly cloudy.10 mph69%29.98 "HgN/A
10:50 PM32 °FPassing clouds.6 mph64%29.98 "HgN/A
9:50 PM30 °FPassing clouds.10 mph69%29.98 "HgN/A
8:50 PM28 °FPassing clouds.12 mph74%29.98 "HgN/A
7:50 PM30 °FPassing clouds.17 mph75%30.01 "HgN/A
6:50 PM27 °FPassing clouds.18 mph74%30.01 "HgN/A
5:50 PM23 °FPassing clouds.18 mph80%30.01 "HgN/A
5:20 PM23 °FPassing clouds.16 mph80%30.01 "HgN/A
3:50 PM25 °FScattered clouds.15 mph80%30.01 "HgN/A
2:50 PM27 °FPassing clouds.10 mph74%30.04 "HgN/A
1:50 PM27 °FScattered clouds.2 mph69%30.04 "HgN/A
12:50 PM25 °FScattered clouds.8 mph69%30.04 "HgN/A
11:50 AM25 °FPassing clouds.17 mph63%30.01 "HgN/A
10:50 AM23 °FPassing clouds.5 mph54%30.04 "HgN/A
9:50 AM23 °FPassing clouds.1 mph63%30.01 "HgN/A
Weather by CustomWeather, © 2014

See weather overviewHow to use our weather pages